Year,Month,Day,Hour,Minute,Value (Times are PST for temperature in C)
2017,03,10,00,00,3.20
2017,03,10,00,01,3.20
2017,03,10,00,02,3.20
2017,03,10,00,03,3.20
2017,03,10,00,04,3.20
2017,03,10,00,05,3.20
2017,03,10,00,06,3.20
2017,03,10,00,07,3.20
2017,03,10,00,08,3.20
2017,03,10,00,09,3.20
2017,03,10,00,10,3.20
2017,03,10,00,11,3.20
2017,03,10,00,12,3.20
2017,03,10,00,13,3.20
2017,03,10,00,14,3.20
2017,03,10,00,15,3.20
2017,03,10,00,16,3.20
2017,03,10,00,17,3.20
2017,03,10,00,18,3.20
2017,03,10,00,19,3.20
2017,03,10,00,20,3.20
2017,03,10,00,21,3.20
2017,03,10,00,22,3.30
2017,03,10,00,23,3.30
2017,03,10,00,24,3.30
2017,03,10,00,25,3.30
2017,03,10,00,26,3.30
2017,03,10,00,27,3.30
2017,03,10,00,28,3.30
2017,03,10,00,29,3.30
2017,03,10,00,30,3.30
2017,03,10,00,31,3.30
2017,03,10,00,32,3.30
2017,03,10,00,33,3.30
2017,03,10,00,34,3.30
2017,03,10,00,35,3.30
2017,03,10,00,36,3.30
2017,03,10,00,37,3.30
2017,03,10,00,38,3.30
2017,03,10,00,39,3.30
2017,03,10,00,40,3.30
2017,03,10,00,41,3.30
2017,03,10,00,42,3.30
2017,03,10,00,43,3.30
2017,03,10,00,44,3.30
2017,03,10,00,45,3.30
2017,03,10,00,46,3.30
2017,03,10,00,47,3.30
2017,03,10,00,48,3.30
2017,03,10,00,49,3.30
2017,03,10,00,50,3.30
2017,03,10,00,51,3.30
2017,03,10,00,52,3.30
2017,03,10,00,53,3.30
2017,03,10,00,54,3.30
2017,03,10,00,55,3.30
2017,03,10,00,56,3.30
2017,03,10,00,57,3.30
2017,03,10,00,58,3.30
2017,03,10,00,59,3.30
2017,03,10,01,00,3.30
2017,03,10,01,01,3.30
2017,03,10,01,02,3.30
2017,03,10,01,03,3.30
2017,03,10,01,04,3.30
2017,03,10,01,05,3.30
2017,03,10,01,06,3.30
2017,03,10,01,07,3.30
2017,03,10,01,08,3.30
2017,03,10,01,09,3.30
2017,03,10,01,10,3.30
2017,03,10,01,11,3.30
2017,03,10,01,12,3.30
2017,03,10,01,13,3.30
2017,03,10,01,14,3.30
2017,03,10,01,15,3.30
2017,03,10,01,16,3.30
2017,03,10,01,17,3.30
2017,03,10,01,18,3.30
2017,03,10,01,19,3.30
2017,03,10,01,20,3.30
2017,03,10,01,21,3.30
2017,03,10,01,22,3.30
2017,03,10,01,23,3.30
2017,03,10,01,24,3.30
2017,03,10,01,25,3.30
2017,03,10,01,26,3.30
2017,03,10,01,27,3.30
2017,03,10,01,28,3.30
2017,03,10,01,29,3.30
2017,03,10,01,30,3.30
2017,03,10,01,31,3.30
2017,03,10,01,32,3.30
2017,03,10,01,33,3.30
2017,03,10,01,34,3.30
2017,03,10,01,35,3.40
2017,03,10,01,36,3.40
2017,03,10,01,37,3.40
2017,03,10,01,38,3.40
2017,03,10,01,39,3.40
2017,03,10,01,40,3.40
2017,03,10,01,41,3.40
2017,03,10,01,42,3.40
2017,03,10,01,43,3.40
2017,03,10,01,44,3.40
2017,03,10,01,45,3.40
2017,03,10,01,46,3.40
2017,03,10,01,47,3.40
2017,03,10,01,48,3.40
2017,03,10,01,49,3.40
2017,03,10,01,50,3.40
2017,03,10,01,51,3.40
2017,03,10,01,52,3.40
2017,03,10,01,53,3.40
2017,03,10,01,54,3.40
2017,03,10,01,55,3.40
2017,03,10,01,56,3.40
2017,03,10,01,57,3.40
2017,03,10,01,58,3.40
2017,03,10,01,59,3.40
2017,03,10,02,00,3.40
2017,03,10,02,01,3.40
2017,03,10,02,02,3.50
2017,03,10,02,03,3.50
2017,03,10,02,04,3.50
2017,03,10,02,05,3.50
2017,03,10,02,06,3.50
2017,03,10,02,07,3.50
2017,03,10,02,08,3.50
2017,03,10,02,09,3.50
2017,03,10,02,10,3.50
2017,03,10,02,11,3.50
2017,03,10,02,12,3.50
2017,03,10,02,13,3.50
2017,03,10,02,14,3.50
2017,03,10,02,15,3.50
2017,03,10,02,16,3.50
2017,03,10,02,17,3.50
2017,03,10,02,18,3.50
2017,03,10,02,19,3.60
2017,03,10,02,20,3.60
2017,03,10,02,21,3.60
2017,03,10,02,22,3.60
2017,03,10,02,23,3.60
2017,03,10,02,24,3.60
2017,03,10,02,25,3.60
2017,03,10,02,26,3.60
2017,03,10,02,27,3.60
2017,03,10,02,28,3.60
2017,03,10,02,29,3.60
2017,03,10,02,30,3.60
2017,03,10,02,31,3.60
2017,03,10,02,32,3.60
2017,03,10,02,33,3.60
2017,03,10,02,34,3.60
2017,03,10,02,35,3.60
2017,03,10,02,36,3.60
2017,03,10,02,37,3.60
2017,03,10,02,38,3.60
2017,03,10,02,39,3.60
2017,03,10,02,40,3.60
2017,03,10,02,41,3.60
2017,03,10,02,42,3.60
2017,03,10,02,43,3.60
2017,03,10,02,44,3.60
2017,03,10,02,45,3.60
2017,03,10,02,46,3.60
2017,03,10,02,47,3.60
2017,03,10,02,48,3.60
2017,03,10,02,49,3.60
2017,03,10,02,50,3.60
2017,03,10,02,51,3.60
2017,03,10,02,52,3.60
2017,03,10,02,53,3.60
2017,03,10,02,54,3.60
2017,03,10,02,55,3.60
2017,03,10,02,56,3.60
2017,03,10,02,57,3.60
2017,03,10,02,58,3.60
2017,03,10,02,59,3.60
2017,03,10,03,00,3.60
2017,03,10,03,01,3.60
2017,03,10,03,02,3.60
2017,03,10,03,03,3.60
2017,03,10,03,04,3.60
2017,03,10,03,05,3.60
2017,03,10,03,06,3.60
2017,03,10,03,07,3.60
2017,03,10,03,08,3.60
2017,03,10,03,09,3.60
2017,03,10,03,10,3.60
2017,03,10,03,11,3.60
2017,03,10,03,12,3.60
2017,03,10,03,13,3.60
2017,03,10,03,14,3.60
2017,03,10,03,15,3.60
2017,03,10,03,16,3.60
2017,03,10,03,17,3.60
2017,03,10,03,18,3.60
2017,03,10,03,19,3.60
2017,03,10,03,20,3.60
2017,03,10,03,21,3.60
2017,03,10,03,22,3.60
2017,03,10,03,23,3.60
2017,03,10,03,24,3.60
2017,03,10,03,25,3.60
2017,03,10,03,26,3.60
2017,03,10,03,27,3.60
2017,03,10,03,28,3.60
2017,03,10,03,29,3.60
2017,03,10,03,30,3.60
2017,03,10,03,31,3.60
2017,03,10,03,32,3.60
2017,03,10,03,33,3.70
2017,03,10,03,34,3.70
2017,03,10,03,35,3.60
2017,03,10,03,36,3.60
2017,03,10,03,37,3.60
2017,03,10,03,38,3.60
2017,03,10,03,39,3.60
2017,03,10,03,40,3.60
2017,03,10,03,41,3.70
2017,03,10,03,42,3.70
2017,03,10,03,43,3.70
2017,03,10,03,44,3.70
2017,03,10,03,45,3.70
2017,03,10,03,46,3.70
2017,03,10,03,47,3.70
2017,03,10,03,48,3.70
2017,03,10,03,49,3.70
2017,03,10,03,50,3.70
2017,03,10,03,51,3.70
2017,03,10,03,52,3.70
2017,03,10,03,53,3.70
2017,03,10,03,54,3.70
2017,03,10,03,55,3.70
2017,03,10,03,56,3.70
2017,03,10,03,57,3.70
2017,03,10,03,58,3.70
2017,03,10,03,59,3.70
2017,03,10,04,00,3.70
2017,03,10,04,01,3.80
2017,03,10,04,02,3.80
2017,03,10,04,03,3.80
2017,03,10,04,04,3.80
2017,03,10,04,05,3.80
2017,03,10,04,06,3.80
2017,03,10,04,07,3.80
2017,03,10,04,08,3.90
2017,03,10,04,09,3.80
2017,03,10,04,10,3.80
2017,03,10,04,11,3.80
2017,03,10,04,12,3.80
2017,03,10,04,13,3.80
2017,03,10,04,14,3.80
2017,03,10,04,15,3.80
2017,03,10,04,16,3.80
2017,03,10,04,17,3.80
2017,03,10,04,18,3.80
2017,03,10,04,19,3.80
2017,03,10,04,20,3.80
2017,03,10,04,21,3.80
2017,03,10,04,22,3.80
2017,03,10,04,23,3.90
2017,03,10,04,24,3.90
2017,03,10,04,25,3.90
2017,03,10,04,26,3.90
2017,03,10,04,27,3.90
2017,03,10,04,28,3.90
2017,03,10,04,29,3.90
2017,03,10,04,30,3.90
2017,03,10,04,31,3.90
2017,03,10,04,32,3.80
2017,03,10,04,33,3.80
2017,03,10,04,34,3.90
2017,03,10,04,35,3.90
2017,03,10,04,36,3.90
2017,03,10,04,37,3.90
2017,03,10,04,38,3.90
2017,03,10,04,39,3.90
2017,03,10,04,40,3.90
2017,03,10,04,41,3.90
2017,03,10,04,42,3.90
2017,03,10,04,43,3.90
2017,03,10,04,44,3.90
2017,03,10,04,45,3.90
2017,03,10,04,46,3.90
2017,03,10,04,47,3.90
2017,03,10,04,48,3.90
2017,03,10,04,49,3.90
2017,03,10,04,50,3.90
2017,03,10,04,51,3.90
2017,03,10,04,52,3.90
2017,03,10,04,53,3.90
2017,03,10,04,54,3.90
2017,03,10,04,55,3.90
2017,03,10,04,56,3.90
2017,03,10,04,57,3.90
2017,03,10,04,58,3.90
2017,03,10,04,59,3.90
2017,03,10,05,00,3.90
2017,03,10,05,01,3.90
2017,03,10,05,02,3.90
2017,03,10,05,03,3.90
2017,03,10,05,04,3.90
2017,03,10,05,05,3.90
2017,03,10,05,06,3.90
2017,03,10,05,07,4.00
2017,03,10,05,08,4.00
2017,03,10,05,09,4.00
2017,03,10,05,10,4.00
2017,03,10,05,11,4.00
2017,03,10,05,12,4.00
2017,03,10,05,13,4.00
2017,03,10,05,14,4.00
2017,03,10,05,15,4.00
2017,03,10,05,16,4.00
2017,03,10,05,17,4.00
2017,03,10,05,18,4.00
2017,03,10,05,19,4.10
2017,03,10,05,20,4.00
2017,03,10,05,21,4.00
2017,03,10,05,22,4.00
2017,03,10,05,23,4.00
2017,03,10,05,24,4.00
2017,03,10,05,25,4.00
2017,03,10,05,26,4.10
2017,03,10,05,27,4.10
2017,03,10,05,28,4.10
2017,03,10,05,29,4.10
2017,03,10,05,30,4.10
2017,03,10,05,31,4.10
2017,03,10,05,32,4.10
2017,03,10,05,33,4.10
2017,03,10,05,34,4.10
2017,03,10,05,35,4.10
2017,03,10,05,36,4.10
2017,03,10,05,37,4.10
2017,03,10,05,38,4.10
2017,03,10,05,39,4.10
2017,03,10,05,40,4.10
2017,03,10,05,41,4.10
2017,03,10,05,42,4.10
2017,03,10,05,43,4.10
2017,03,10,05,44,4.10
2017,03,10,05,45,4.10
2017,03,10,05,46,4.10
2017,03,10,05,47,4.10
2017,03,10,05,48,4.10
2017,03,10,05,49,4.10
2017,03,10,05,50,4.10
2017,03,10,05,51,4.10
2017,03,10,05,52,4.20
2017,03,10,05,53,4.20
2017,03,10,05,54,4.20
2017,03,10,05,55,4.20
2017,03,10,05,56,4.20
2017,03,10,05,57,4.20
2017,03,10,05,58,4.20
2017,03,10,05,59,4.20
2017,03,10,06,00,4.20
2017,03,10,06,01,4.20
2017,03,10,06,02,4.20
2017,03,10,06,03,4.20
2017,03,10,06,04,4.20
2017,03,10,06,05,4.20
2017,03,10,06,06,4.20
2017,03,10,06,07,4.20
2017,03,10,06,08,4.20
2017,03,10,06,09,4.20
2017,03,10,06,10,4.20
2017,03,10,06,11,4.20
2017,03,10,06,12,4.20
2017,03,10,06,13,4.20
2017,03,10,06,14,4.20
2017,03,10,06,15,4.20
2017,03,10,06,16,4.20
2017,03,10,06,17,4.30
2017,03,10,06,18,4.30
2017,03,10,06,19,4.30
2017,03,10,06,20,4.30
2017,03,10,06,21,4.30
2017,03,10,06,22,4.30
2017,03,10,06,23,4.30
2017,03,10,06,24,4.30
2017,03,10,06,25,4.30
2017,03,10,06,26,4.30
2017,03,10,06,27,4.30
2017,03,10,06,28,4.30
2017,03,10,06,29,4.30
2017,03,10,06,30,4.30
2017,03,10,06,31,4.30
2017,03,10,06,32,4.30
2017,03,10,06,33,4.40
2017,03,10,06,34,4.40
2017,03,10,06,35,4.40
2017,03,10,06,36,4.40
2017,03,10,06,37,4.40
2017,03,10,06,38,4.40
2017,03,10,06,39,4.40
2017,03,10,06,40,4.40
2017,03,10,06,41,4.40
2017,03,10,06,42,4.40
2017,03,10,06,43,4.40
2017,03,10,06,44,4.40
2017,03,10,06,45,4.40
2017,03,10,06,46,4.40
2017,03,10,06,47,4.40
2017,03,10,06,48,4.40
2017,03,10,06,49,4.40
2017,03,10,06,50,4.40
2017,03,10,06,51,4.40
2017,03,10,06,52,4.30
2017,03,10,06,53,4.30
2017,03,10,06,54,4.40
2017,03,10,06,55,4.30
2017,03,10,06,56,4.30
2017,03,10,06,57,4.40
2017,03,10,06,58,4.40
2017,03,10,06,59,4.40
2017,03,10,07,00,4.40
2017,03,10,07,01,4.40
2017,03,10,07,02,4.40
2017,03,10,07,03,4.40
2017,03,10,07,04,4.40
2017,03,10,07,05,4.40
2017,03,10,07,06,4.40
2017,03,10,07,07,4.40
2017,03,10,07,08,4.40
2017,03,10,07,09,4.40
2017,03,10,07,10,4.40
2017,03,10,07,11,4.40
2017,03,10,07,12,4.40
2017,03,10,07,13,4.40
2017,03,10,07,14,4.40
2017,03,10,07,15,4.40
2017,03,10,07,16,4.40
2017,03,10,07,17,4.40
2017,03,10,07,18,4.40
2017,03,10,07,19,4.40
2017,03,10,07,20,4.40
2017,03,10,07,21,4.40
2017,03,10,07,22,4.40
2017,03,10,07,23,4.40
2017,03,10,07,24,4.40
2017,03,10,07,25,4.40
2017,03,10,07,26,4.40
2017,03,10,07,27,4.40
2017,03,10,07,28,4.40
2017,03,10,07,29,4.50
2017,03,10,07,30,4.50
2017,03,10,07,31,4.50
2017,03,10,07,32,4.50
2017,03,10,07,33,4.60
2017,03,10,07,34,4.60
2017,03,10,07,35,4.50
2017,03,10,07,36,4.60
2017,03,10,07,37,4.60
2017,03,10,07,38,4.60
2017,03,10,07,39,4.50
2017,03,10,07,40,4.50
2017,03,10,07,41,4.60
2017,03,10,07,42,4.60
2017,03,10,07,43,4.60
2017,03,10,07,44,4.60
2017,03,10,07,45,4.60
2017,03,10,07,46,4.60
2017,03,10,07,47,4.60
2017,03,10,07,48,4.60
2017,03,10,07,49,4.70
2017,03,10,07,50,4.70
2017,03,10,07,51,4.70
2017,03,10,07,52,4.70
2017,03,10,07,53,4.70
2017,03,10,07,54,4.70
2017,03,10,07,55,4.70
2017,03,10,07,56,4.80
2017,03,10,07,57,4.80
2017,03,10,07,58,4.80
2017,03,10,07,59,4.80
2017,03,10,08,00,4.80
2017,03,10,08,01,4.80
2017,03,10,08,02,4.90
2017,03,10,08,03,4.90
2017,03,10,08,04,4.90
2017,03,10,08,05,4.90
2017,03,10,08,06,5.00
2017,03,10,08,07,5.00
2017,03,10,08,08,5.10
2017,03,10,08,09,5.10
2017,03,10,08,10,5.10
2017,03,10,08,11,5.20
2017,03,10,08,12,5.20
2017,03,10,08,13,5.30
2017,03,10,08,14,5.30
2017,03,10,08,15,5.30
2017,03,10,08,16,5.40
2017,03,10,08,17,5.40
2017,03,10,08,18,5.40
2017,03,10,08,19,5.40
2017,03,10,08,20,5.50
2017,03,10,08,21,5.50
2017,03,10,08,22,5.40
2017,03,10,08,23,5.50
2017,03,10,08,24,5.50
2017,03,10,08,25,5.50
2017,03,10,08,26,5.50
2017,03,10,08,27,5.50
2017,03,10,08,28,5.50
2017,03,10,08,29,5.50
2017,03,10,08,30,5.50
2017,03,10,08,31,5.50
2017,03,10,08,32,5.50
2017,03,10,08,33,5.50
2017,03,10,08,34,5.50
2017,03,10,08,35,5.50
2017,03,10,08,36,5.50
2017,03,10,08,37,5.60
2017,03,10,08,38,5.60
2017,03,10,08,39,5.60
2017,03,10,08,40,5.60
2017,03,10,08,41,5.60
2017,03,10,08,42,5.70
2017,03,10,08,43,5.70
2017,03,10,08,44,5.70
2017,03,10,08,45,5.70
2017,03,10,08,46,5.70
2017,03,10,08,47,5.80
2017,03,10,08,48,5.80
2017,03,10,08,49,5.80
2017,03,10,08,50,5.80
2017,03,10,08,51,5.90
2017,03,10,08,52,5.90
2017,03,10,08,53,5.90
2017,03,10,08,54,5.90
2017,03,10,08,55,5.90
2017,03,10,08,56,6.00
2017,03,10,08,57,6.00
2017,03,10,08,58,6.10
2017,03,10,08,59,6.10
2017,03,10,09,00,6.10
2017,03,10,09,01,6.20
2017,03,10,09,02,6.20
2017,03,10,09,03,6.20
2017,03,10,09,04,6.20
2017,03,10,09,05,6.20
2017,03,10,09,06,6.20
2017,03,10,09,07,6.20
2017,03,10,09,08,6.20
2017,03,10,09,09,6.30
2017,03,10,09,10,6.30
2017,03,10,09,11,6.30
2017,03,10,09,12,6.30
2017,03,10,09,13,6.30
2017,03,10,09,14,6.30
2017,03,10,09,15,6.40
2017,03,10,09,16,6.40
2017,03,10,09,17,6.50
2017,03,10,09,18,6.50
2017,03,10,09,19,6.60
2017,03,10,09,20,6.60
2017,03,10,09,21,6.70
2017,03,10,09,22,6.70
2017,03,10,09,23,6.70
2017,03,10,09,24,6.80
2017,03,10,09,25,6.80
2017,03,10,09,26,6.80
2017,03,10,09,27,6.90
2017,03,10,09,28,6.90
2017,03,10,09,29,7.00
2017,03,10,09,30,7.10
2017,03,10,09,31,7.10
2017,03,10,09,32,7.20
2017,03,10,09,33,7.20
2017,03,10,09,34,7.20
2017,03,10,09,35,7.30
2017,03,10,09,36,7.30
2017,03,10,09,37,7.30
2017,03,10,09,38,7.30
2017,03,10,09,39,7.10
2017,03,10,09,40,7.00
2017,03,10,09,41,6.80
2017,03,10,09,42,6.70
2017,03,10,09,43,6.70
2017,03,10,09,44,6.60
2017,03,10,09,45,6.50
2017,03,10,09,46,6.50
2017,03,10,09,47,6.50
2017,03,10,09,48,6.40
2017,03,10,09,49,6.40
2017,03,10,09,50,6.40
2017,03,10,09,51,6.40
2017,03,10,09,52,6.30
2017,03,10,09,53,6.30
2017,03,10,09,54,6.30
2017,03,10,09,55,6.40
2017,03,10,09,56,6.40
2017,03,10,09,57,6.40
2017,03,10,09,58,6.40
2017,03,10,09,59,6.40
2017,03,10,10,00,6.30
2017,03,10,10,01,6.30
2017,03,10,10,02,6.30
2017,03,10,10,03,6.30
2017,03,10,10,04,6.30
2017,03,10,10,05,6.30
2017,03,10,10,06,6.30
2017,03,10,10,07,6.30
2017,03,10,10,08,6.40
2017,03,10,10,09,6.40
2017,03,10,10,10,6.40
2017,03,10,10,11,6.50
2017,03,10,10,12,6.60
2017,03,10,10,13,6.60
2017,03,10,10,14,6.70
2017,03,10,10,15,6.80
2017,03,10,10,16,6.90
2017,03,10,10,17,6.90
2017,03,10,10,18,6.90
2017,03,10,10,19,6.90
2017,03,10,10,20,6.90
2017,03,10,10,21,6.90
2017,03,10,10,22,6.90
2017,03,10,10,23,6.90
2017,03,10,10,24,7.00
2017,03,10,10,25,7.00
2017,03,10,10,26,7.10
2017,03,10,10,27,7.10
2017,03,10,10,28,7.20
2017,03,10,10,29,7.30
2017,03,10,10,30,7.50
2017,03,10,10,31,7.60
2017,03,10,10,32,7.70
2017,03,10,10,33,7.80
2017,03,10,10,34,8.00
2017,03,10,10,35,8.10
2017,03,10,10,36,8.20
2017,03,10,10,37,8.20
2017,03,10,10,38,8.30
2017,03,10,10,39,8.40
2017,03,10,10,40,8.50
2017,03,10,10,41,8.60
2017,03,10,10,42,8.70
2017,03,10,10,43,8.80
2017,03,10,10,44,8.90
2017,03,10,10,45,8.90
2017,03,10,10,46,8.90
2017,03,10,10,47,8.90
2017,03,10,10,48,8.80
2017,03,10,10,49,8.70
2017,03,10,10,50,8.70
2017,03,10,10,51,8.70
2017,03,10,10,52,8.70
2017,03,10,10,53,8.70
2017,03,10,10,54,8.80
2017,03,10,10,55,8.80
2017,03,10,10,56,8.80
2017,03,10,10,57,8.90
2017,03,10,10,58,8.90
2017,03,10,10,59,9.00
2017,03,10,11,00,9.00
2017,03,10,11,01,9.10
2017,03,10,11,02,9.20
2017,03,10,11,03,9.30
2017,03,10,11,04,9.30
2017,03,10,11,05,9.20
2017,03,10,11,06,9.30
2017,03,10,11,07,9.30
2017,03,10,11,08,9.30
2017,03,10,11,09,9.40
2017,03,10,11,10,9.40
2017,03,10,11,11,9.30
2017,03,10,11,12,9.40
2017,03,10,11,13,9.50
2017,03,10,11,14,9.40
2017,03,10,11,15,9.40
2017,03,10,11,16,9.50
2017,03,10,11,17,9.60
2017,03,10,11,18,9.70
2017,03,10,11,19,9.60
2017,03,10,11,20,9.70
2017,03,10,11,21,9.70
2017,03,10,11,22,9.80
2017,03,10,11,23,9.80
2017,03,10,11,24,9.90
2017,03,10,11,25,9.90
2017,03,10,11,26,10.00
2017,03,10,11,27,10.00
2017,03,10,11,28,10.00
2017,03,10,11,29,10.10
2017,03,10,11,30,10.20
2017,03,10,11,31,10.20
2017,03,10,11,32,10.20
2017,03,10,11,33,10.10
2017,03,10,11,34,10.10
2017,03,10,11,35,10.00
2017,03,10,11,36,9.90
2017,03,10,11,37,9.90
2017,03,10,11,38,9.90
2017,03,10,11,39,9.80
2017,03,10,11,40,9.80
2017,03,10,11,41,9.80
2017,03,10,11,42,9.80
2017,03,10,11,43,9.80
2017,03,10,11,44,9.70
2017,03,10,11,45,9.70
2017,03,10,11,46,9.70
2017,03,10,11,47,9.80
2017,03,10,11,48,9.90
2017,03,10,11,49,9.90
2017,03,10,11,50,10.00
2017,03,10,11,51,10.00
2017,03,10,11,52,10.00
2017,03,10,11,53,10.00
2017,03,10,11,54,10.00
2017,03,10,11,55,10.00
2017,03,10,11,56,10.00
2017,03,10,11,57,10.10
2017,03,10,11,58,9.90
2017,03,10,11,59,9.90
2017,03,10,12,00,9.90
2017,03,10,12,01,9.90
2017,03,10,12,02,10.00
2017,03,10,12,03,10.10
2017,03,10,12,04,10.30
2017,03,10,12,05,10.40
2017,03,10,12,06,10.50
2017,03,10,12,07,10.60
2017,03,10,12,08,10.50
2017,03,10,12,09,10.50
2017,03,10,12,10,10.40
2017,03,10,12,11,10.30
2017,03,10,12,12,10.30
2017,03,10,12,13,10.20
2017,03,10,12,14,10.20
2017,03,10,12,15,10.20
2017,03,10,12,16,10.20
2017,03,10,12,17,10.20
2017,03,10,12,18,10.20
2017,03,10,12,19,10.30
2017,03,10,12,20,10.30
2017,03,10,12,21,10.20
2017,03,10,12,22,10.20
2017,03,10,12,23,10.10
2017,03,10,12,24,10.10
2017,03,10,12,25,10.10
2017,03,10,12,26,10.20
2017,03,10,12,27,10.20
2017,03,10,12,28,10.20
2017,03,10,12,29,10.20
2017,03,10,12,30,10.20
2017,03,10,12,31,10.20
2017,03,10,12,32,10.10
2017,03,10,12,33,10.10
2017,03,10,12,34,10.00
2017,03,10,12,35,10.10
2017,03,10,12,36,10.10
2017,03,10,12,37,10.10
2017,03,10,12,38,10.00
2017,03,10,12,39,10.00
2017,03,10,12,40,10.00
2017,03,10,12,41,10.00
2017,03,10,12,42,10.00
2017,03,10,12,43,10.00
2017,03,10,12,44,10.00
2017,03,10,12,45,9.90
2017,03,10,12,46,9.90
2017,03,10,12,47,9.90
2017,03,10,12,48,9.90
2017,03,10,12,49,9.90
2017,03,10,12,50,9.90
2017,03,10,12,51,9.80
2017,03,10,12,52,9.80
2017,03,10,12,53,9.80
2017,03,10,12,54,9.80
2017,03,10,12,55,9.80
2017,03,10,12,56,9.80
2017,03,10,12,57,9.70
2017,03,10,12,58,9.70
2017,03,10,12,59,9.70
2017,03,10,13,00,9.70
2017,03,10,13,01,9.70
2017,03,10,13,02,9.60
2017,03,10,13,03,9.70
2017,03,10,13,04,9.70
2017,03,10,13,05,9.70
2017,03,10,13,06,9.70
2017,03,10,13,07,9.70
2017,03,10,13,08,9.70
2017,03,10,13,09,9.80
2017,03,10,13,10,9.80
2017,03,10,13,11,9.80
2017,03,10,13,12,9.70
2017,03,10,13,13,9.70
2017,03,10,13,14,9.70
2017,03,10,13,15,9.70
2017,03,10,13,16,9.80
2017,03,10,13,17,9.80
2017,03,10,13,18,9.90
2017,03,10,13,19,10.00
2017,03,10,13,20,10.00
2017,03,10,13,21,10.10
2017,03,10,13,22,10.20
2017,03,10,13,23,10.10
2017,03,10,13,24,10.10
2017,03,10,13,25,10.00
2017,03,10,13,26,10.10
2017,03,10,13,27,10.10
2017,03,10,13,28,10.10
2017,03,10,13,29,10.10
2017,03,10,13,30,10.00
2017,03,10,13,31,10.10
2017,03,10,13,32,10.10
2017,03,10,13,33,10.10
2017,03,10,13,34,10.20
2017,03,10,13,35,10.20
2017,03,10,13,36,10.20
2017,03,10,13,37,10.10
2017,03,10,13,38,10.10
2017,03,10,13,39,10.10
2017,03,10,13,40,10.10
2017,03,10,13,41,10.10
2017,03,10,13,42,10.10
2017,03,10,13,43,10.10
2017,03,10,13,44,10.10
2017,03,10,13,45,10.10
2017,03,10,13,46,10.10
2017,03,10,13,47,10.10
2017,03,10,13,48,10.10
2017,03,10,13,49,10.10
2017,03,10,13,50,10.20
2017,03,10,13,51,10.20
2017,03,10,13,52,10.10
2017,03,10,13,53,10.00
2017,03,10,13,54,9.90
2017,03,10,13,55,10.00
2017,03,10,13,56,10.10
2017,03,10,13,57,10.10
2017,03,10,13,58,10.10
2017,03,10,13,59,10.10
2017,03,10,14,00,10.10
2017,03,10,14,01,10.10
2017,03,10,14,02,10.10
2017,03,10,14,03,10.20
2017,03,10,14,04,10.20
2017,03,10,14,05,10.20
2017,03,10,14,06,10.20
2017,03,10,14,07,10.20
2017,03,10,14,08,10.20
2017,03,10,14,09,10.20
2017,03,10,14,10,10.20
2017,03,10,14,11,10.20
2017,03,10,14,12,10.20
2017,03,10,14,13,10.20
2017,03,10,14,14,10.10
2017,03,10,14,15,10.10
2017,03,10,14,16,10.20
2017,03,10,14,17,10.20
2017,03,10,14,18,10.30
2017,03,10,14,19,10.20
2017,03,10,14,20,10.30
2017,03,10,14,21,10.30
2017,03,10,14,22,10.30
2017,03,10,14,23,10.30
2017,03,10,14,24,10.30
2017,03,10,14,25,10.30
2017,03,10,14,26,10.30
2017,03,10,14,27,10.30
2017,03,10,14,28,10.30
2017,03,10,14,29,10.30
2017,03,10,14,30,10.30
2017,03,10,14,31,10.30
2017,03,10,14,32,10.20
2017,03,10,14,33,10.20
2017,03,10,14,34,10.20
2017,03,10,14,35,10.10
2017,03,10,14,36,10.20
2017,03,10,14,37,10.20
2017,03,10,14,38,10.20
2017,03,10,14,39,10.20
2017,03,10,14,40,10.20
2017,03,10,14,41,10.30
2017,03,10,14,42,10.30
2017,03,10,14,43,10.40
2017,03,10,14,44,10.40
2017,03,10,14,45,10.50
2017,03,10,14,46,10.60
2017,03,10,14,47,10.60
2017,03,10,14,48,10.60
2017,03,10,14,49,10.60
2017,03,10,14,50,10.50
2017,03,10,14,51,10.40
2017,03,10,14,52,10.40
2017,03,10,14,53,10.40
2017,03,10,14,54,10.40
2017,03,10,14,55,10.40
2017,03,10,14,56,10.40
2017,03,10,14,57,10.40
2017,03,10,14,58,10.40
2017,03,10,14,59,10.40
2017,03,10,15,00,10.40
2017,03,10,15,01,10.40
2017,03,10,15,02,10.30
2017,03,10,15,03,10.30
2017,03,10,15,04,10.30
2017,03,10,15,05,10.30
2017,03,10,15,06,10.30
2017,03,10,15,07,10.20
2017,03,10,15,08,10.20
2017,03,10,15,09,10.20
2017,03,10,15,10,10.20
2017,03,10,15,11,10.30
2017,03,10,15,12,10.30
2017,03,10,15,13,10.30
2017,03,10,15,14,10.30
2017,03,10,15,15,10.40
2017,03,10,15,16,10.40
2017,03,10,15,17,10.40
2017,03,10,15,18,10.30
2017,03,10,15,19,10.30
2017,03,10,15,20,10.30
2017,03,10,15,21,10.30
2017,03,10,15,22,10.20
2017,03,10,15,23,10.20
2017,03,10,15,24,10.20
2017,03,10,15,25,10.10
2017,03,10,15,26,10.00
2017,03,10,15,27,9.90
2017,03,10,15,28,9.80
2017,03,10,15,29,9.80
2017,03,10,15,30,9.80
2017,03,10,15,31,9.80
2017,03,10,15,32,9.80
2017,03,10,15,33,9.90
2017,03,10,15,34,9.90
2017,03,10,15,35,10.00
2017,03,10,15,36,10.10
2017,03,10,15,37,10.20
2017,03,10,15,38,10.20
2017,03,10,15,39,10.30
2017,03,10,15,40,10.40
2017,03,10,15,41,10.40
2017,03,10,15,42,10.40
2017,03,10,15,43,10.50
2017,03,10,15,44,10.60
2017,03,10,15,45,10.60
2017,03,10,15,46,10.60
2017,03,10,15,47,10.50
2017,03,10,15,48,10.40
2017,03,10,15,49,10.30
2017,03,10,15,50,10.20
2017,03,10,15,51,10.10
2017,03,10,15,52,10.00
2017,03,10,15,53,10.00
2017,03,10,15,54,9.90
2017,03,10,15,55,9.90
2017,03,10,15,56,9.80
2017,03,10,15,57,9.80
2017,03,10,15,58,9.70
2017,03,10,15,59,9.60
2017,03,10,16,00,9.60
2017,03,10,16,01,9.60
2017,03,10,16,02,9.60
2017,03,10,16,03,9.60
2017,03,10,16,04,9.60
2017,03,10,16,05,9.70
2017,03,10,16,06,9.70
2017,03,10,16,07,9.70
2017,03,10,16,08,9.70
2017,03,10,16,09,9.70
2017,03,10,16,10,9.70
2017,03,10,16,11,9.70
2017,03,10,16,12,9.80
2017,03,10,16,13,9.90
2017,03,10,16,14,9.90
2017,03,10,16,15,10.00
2017,03,10,16,16,10.10
2017,03,10,16,17,10.10
2017,03,10,16,18,10.20
2017,03,10,16,19,10.20
2017,03,10,16,20,10.30
2017,03,10,16,21,10.30
2017,03,10,16,22,10.30
2017,03,10,16,23,10.30
2017,03,10,16,24,10.20
2017,03,10,16,25,10.20
2017,03,10,16,26,10.20
2017,03,10,16,27,10.20
2017,03,10,16,28,10.20
2017,03,10,16,29,10.20
2017,03,10,16,30,10.10
2017,03,10,16,31,10.00
2017,03,10,16,32,10.00
2017,03,10,16,33,10.00
2017,03,10,16,34,10.00
2017,03,10,16,35,10.00
2017,03,10,16,36,9.90
2017,03,10,16,37,9.90
2017,03,10,16,38,9.90
2017,03,10,16,39,9.80
2017,03,10,16,40,9.70
2017,03,10,16,41,9.70
2017,03,10,16,42,9.60
2017,03,10,16,43,9.50
2017,03,10,16,44,9.50
2017,03,10,16,45,9.50
2017,03,10,16,46,9.60
2017,03,10,16,47,9.60
2017,03,10,16,48,9.50
2017,03,10,16,49,9.50
2017,03,10,16,50,9.50
2017,03,10,16,51,9.40
2017,03,10,16,52,9.50
2017,03,10,16,53,9.50
2017,03,10,16,54,9.40
2017,03,10,16,55,9.40
2017,03,10,16,56,9.30
2017,03,10,16,57,9.20
2017,03,10,16,58,9.10
2017,03,10,16,59,9.00
2017,03,10,17,00,9.00
2017,03,10,17,01,9.00
2017,03,10,17,02,9.00
2017,03,10,17,03,9.00
2017,03,10,17,04,8.90
2017,03,10,17,05,8.90
2017,03,10,17,06,8.80
2017,03,10,17,07,8.80
2017,03,10,17,08,8.80
2017,03,10,17,09,8.80
2017,03,10,17,10,8.70
2017,03,10,17,11,8.70
2017,03,10,17,12,8.70
2017,03,10,17,13,8.60
2017,03,10,17,14,8.60
2017,03,10,17,15,8.60
2017,03,10,17,16,8.60
2017,03,10,17,17,8.60
2017,03,10,17,18,8.50
2017,03,10,17,19,8.50
2017,03,10,17,20,8.50
2017,03,10,17,21,8.40
2017,03,10,17,22,8.40
2017,03,10,17,23,8.30
2017,03,10,17,24,8.30
2017,03,10,17,25,8.30
2017,03,10,17,26,8.30
2017,03,10,17,27,8.20
2017,03,10,17,28,8.20
2017,03,10,17,29,8.20
2017,03,10,17,30,8.20
2017,03,10,17,31,8.20
2017,03,10,17,32,8.20
2017,03,10,17,33,8.10
2017,03,10,17,34,8.10
2017,03,10,17,35,8.10
2017,03,10,17,36,8.10
2017,03,10,17,37,8.00
2017,03,10,17,38,8.00
2017,03,10,17,39,7.90
2017,03,10,17,40,7.90
2017,03,10,17,41,7.90
2017,03,10,17,42,7.90
2017,03,10,17,43,7.80
2017,03,10,17,44,7.80
2017,03,10,17,45,7.80
2017,03,10,17,46,7.70
2017,03,10,17,47,7.70
2017,03,10,17,48,7.70
2017,03,10,17,49,7.70
2017,03,10,17,50,7.70
2017,03,10,17,51,7.70
2017,03,10,17,52,7.70
2017,03,10,17,53,7.70
2017,03,10,17,54,7.70
2017,03,10,17,55,7.60
2017,03,10,17,56,7.60